Theta_e
318 322 320 318 318 319 318 315 316 317 317 315 317 323 325 331 336 334 334 334 331 328 331 330 327 330 333 334 336 334 332 330 330 335 338 328 320 317 315 315 315 318 318 319 318 321 326 330 331
322 321 318 319 318 317 316 317 317 318 318 318 319 319 321 322 330 334 336 335 333 328 330 331 327 328 330 329 329 328 325 320 323 326 323 318 317 316 315 315 316 318 318 318 320 326 329 332 332
322 320 319 319 320 316 316 315 318 317 318 319 321 331 329 326 325 329 336 336 333 329 330 331 326 327 329 327 325 322 316 316 316 317 317 317 316 315 315 314 317 317 317 318 323 327 329 331 332
320 318 318 320 318 319 316 318 317 318 319 319 324 324 333 340 338 331 332 335 332 331 331 329 325 327 327 325 321 317 316 316 316 316 316 316 316 315 315 315 316 317 317 319 324 326 326 329 330
318 320 320 322 319 318 318 317 317 319 319 319 319 321 331 338 340 337 334 333 331 331 332 328 324 327 326 322 318 318 317 316 316 316 316 316 316 315 315 315 316 316 317 318 322 323 324 327 329
318 317 321 319 318 318 319 319 319 318 318 318 320 320 331 333 341 337 335 331 330 332 333 328 324 326 323 321 320 319 317 316 316 316 316 316 316 316 315 315 316 316 317 318 319 320 322 326 329
317 318 321 320 319 318 318 317 318 319 319 319 322 329 337 340 341 337 334 330 331 332 333 329 325 324 323 323 322 321 318 317 316 316 316 316 316 316 315 315 315 316 317 317 318 318 320 323 327
320 317 320 319 320 320 318 318 319 319 320 321 326 335 340 341 342 338 333 331 334 333 333 330 326 325 325 325 325 323 321 318 317 316 316 316 316 316 316 316 316 316 316 316 317 317 317 318 321
318 322 324 323 320 320 319 319 319 320 321 321 322 330 335 339 341 338 332 331 334 334 334 332 328 327 328 329 328 326 323 321 318 317 317 317 316 316 316 316 316 316 316 316 316 316 316 317 317
319 322 322 321 321 320 319 319 319 320 320 321 321 327 323 341 341 336 330 328 332 333 334 333 331 329 329 330 331 330 327 325 320 318 317 317 317 316 316 316 316 316 316 316 316 316 316 316 317
319 321 321 320 320 320 320 320 320 320 321 320 321 327 325 332 342 337 328 325 325 330 333 333 333 331 331 331 332 332 330 326 323 320 318 317 317 317 316 316 316 316 316 316 316 316 316 317 317
317 317 318 320 320 320 320 320 320 320 321 321 320 321 321 327 334 341 333 329 329 328 331 334 334 333 332 332 333 333 332 328 324 321 319 318 317 317 317 316 316 316 316 316 316 316 316 315 317
317 317 315 315 317 319 320 320 321 321 321 320 320 320 322 328 323 332 340 338 334 332 330 332 334 334 334 334 334 334 333 332 326 322 320 319 317 317 317 317 317 316 316 317 317 317 318 318 318
315 316 316 315 314 315 318 319 320 320 321 320 320 320 320 320 322 326 341 339 336 332 331 331 333 334 335 335 335 335 334 334 331 323 321 319 318 317 317 317 317 317 317 317 318 319 322 328 330
315 316 317 317 317 315 316 318 318 318 320 320 320 320 320 321 323 326 330 341 339 334 334 330 330 334 334 335 335 336 335 335 333 328 322 320 319 318 317 317 317 318 318 318 319 321 327 333 332
313 314 316 314 318 316 316 317 318 318 319 320 320 320 320 320 325 322 327 336 340 337 332 334 332 332 334 335 335 335 336 336 335 333 326 321 320 320 319 318 318 318 318 319 320 324 330 334 334
311 311 311 312 316 316 316 318 316 315 316 319 320 320 320 320 324 324 330 335 342 339 336 334 333 332 333 335 335 336 335 336 335 334 332 323 321 321 321 320 319 318 318 319 320 325 332 334 333
304 308 310 313 314 315 316 317 317 316 316 319 320 320 320 320 323 325 327 337 341 341 338 335 333 333 333 335 336 336 336 335 335 335 334 329 322 322 322 322 322 321 320 321 321 321 333 334 334
309 309 308 309 311 315 314 317 316 316 317 317 317 319 320 320 322 329 324 333 340 341 340 337 334 333 332 333 334 334 332 331 332 333 335 334 324 322 323 324 324 324 323 323 325 321 330 335 335
307 308 306 307 308 312 312 314 315 316 315 316 318 318 320 321 321 324 336 334 338 341 340 339 337 335 334 332 330 329 327 327 327 329 334 333 330 323 323 324 325 326 326 327 327 326 329 334 335
306 305 306 306 306 309 312 315 315 315 315 315 317 318 319 321 322 322 331 332 336 338 341 340 339 338 337 334 330 331 329 328 328 328 331 332 332 327 323 324 325 326 327 327 328 329 332 334 334
307 306 305 305 305 307 313 317 315 314 315 316 316 317 318 319 320 321 323 336 335 336 339 341 340 339 338 337 335 333 329 325 322 322 325 330 331 328 325 324 325 326 327 328 329 329 330 333 334
306 306 307 307 306 306 307 310 310 314 317 316 317 317 318 319 319 319 320 325 336 333 334 341 341 340 339 339 338 336 333 330 328 324 323 323 326 327 325 324 324 325 327 328 329 330 331 331 332
306 307 307 308 309 309 306 307 309 310 314 315 317 316 317 318 319 319 320 320 331 329 334 339 341 342 340 339 338 337 336 336 334 332 329 325 322 323 324 324 324 324 326 327 328 330 330 331 332
306 308 309 308 311 309 306 306 308 310 313 314 316 316 317 317 318 319 320 320 322 332 328 337 340 341 341 339 339 338 338 339 339 338 337 334 329 324 323 322 323 323 325 326 328 329 331 330 333
305 306 308 309 308 307 306 307 309 312 313 313 315 316 316 317 317 318 319 320 320 322 323 330 337 339 341 341 340 339 339 340 341 342 342 341 338 336 329 326 324 323 325 327 329 330 331 330 330
305 307 307 311 310 309 307 308 310 310 313 314 317 317 317 317 318 318 318 319 320 321 322 323 327 333 338 338 341 341 340 340 340 340 341 341 342 341 339 334 329 328 326 327 330 331 331 333 330
306 306 307 311 313 312 309 309 308 314 317 319 319 318 318 317 317 318 318 319 320 321 322 323 323 326 326 329 335 336 336 338 340 341 341 339 339 341 341 340 336 333 331 329 330 333 332 334 335
305 306 306 306 307 310 313 312 313 311 310 319 318 317 318 318 316 317 318 318 319 321 322 322 323 323 325 327 326 327 328 332 337 339 340 340 340 340 341 340 340 337 334 333 332 333 335 335 336
305 305 305 306 306 306 307 309 308 308 308 313 315 316 315 315 317 316 317 317 318 319 319 319 321 321 323 323 324 326 326 330 334 335 335 337 340 339 338 341 341 341 338 335 333 333 334 336 338
Wind_Speed
8 6 3 0 2 1 4 5 3 4 3 4 7 4 7 4 7 3 2 22 26 36 36 34 32 32 30 27 25 24 22 20 19 21 20 16 16 17 18 18 17 18 18 19 20 19 19 17 18
7 7 4 3 3 4 4 3 7 11 1 7 11 6 8 7 17 7 5 21 33 38 37 35 33 32 31 28 26 24 23 21 21 20 19 19 19 19 18 18 18 18 18 19 19 19 18 19 18
8 8 3 2 3 8 3 4 8 5 7 6 3 5 5 4 7 11 5 23 40 40 38 35 33 33 32 28 26 25 24 23 22 22 21 21 20 19 18 18 18 18 18 18 19 18 18 17 18
7 4 1 3 15 6 6 3 3 4 4 3 5 7 6 8 4 11 14 24 45 42 38 35 34 34 32 29 27 25 25 25 24 23 22 21 20 19 18 17 17 17 17 17 17 16 15 15 15
9 2 3 4 13 6 7 13 14 12 10 8 15 6 6 8 10 9 16 28 46 44 40 36 35 34 32 30 27 26 26 25 25 23 22 21 20 19 18 18 17 16 16 16 15 14 13 13 14
4 2 4 11 21 7 6 12 11 15 12 13 6 6 5 8 8 13 23 35 46 45 42 38 35 34 32 29 28 27 26 25 25 24 22 21 20 19 19 18 18 17 16 14 13 12 11 11 11
4 3 11 9 16 12 9 9 10 12 18 11 4 5 4 9 10 16 28 41 48 45 43 40 37 34 32 28 27 26 25 25 24 23 22 21 20 20 19 18 18 17 17 15 13 12 10 10 9
4 3 11 10 16 21 10 13 7 6 6 6 3 3 3 9 14 18 29 43 50 46 43 40 39 37 34 30 27 26 24 24 24 23 23 22 21 21 20 19 18 17 16 15 13 12 10 9 8
7 6 15 21 15 11 3 3 4 2 7 5 3 9 12 14 17 23 33 41 48 46 45 43 42 40 37 33 30 26 24 24 24 23 23 23 23 22 21 20 19 18 16 15 13 11 10 9 8
11 8 20 8 17 14 11 9 8 5 7 13 11 8 14 6 20 28 39 46 51 51 50 46 44 42 40 37 34 31 28 27 26 25 25 24 23 22 21 20 19 19 17 16 14 11 10 9 9
7 22 17 14 11 15 14 18 10 12 13 18 15 1 12 8 20 27 38 46 55 56 52 51 48 45 43 41 38 35 33 30 28 26 25 24 24 23 22 21 21 20 19 17 15 14 11 10 9
14 29 16 20 23 17 13 9 16 18 32 19 19 21 18 12 15 29 35 40 47 55 54 53 50 49 47 43 41 38 36 34 31 29 27 26 25 24 22 21 20 19 18 17 15 14 12 11 10
18 23 21 21 23 20 20 24 21 34 41 30 25 20 17 19 27 25 32 32 40 51 55 55 53 51 49 46 44 41 39 36 34 31 29 27 26 24 23 22 20 19 18 17 16 14 14 12 12
9 19 20 16 22 24 20 23 19 47 32 28 29 32 29 30 28 26 33 39 44 49 55 56 55 53 51 49 46 43 40 38 35 33 31 29 26 24 23 22 21 20 19 17 16 15 16 13 12
14 18 20 26 19 15 11 20 25 66 27 26 22 24 23 22 22 28 28 43 45 51 52 57 55 54 53 50 48 45 43 40 38 35 33 30 28 26 24 23 22 20 19 19 18 17 17 14 13
11 13 12 7 15 14 16 30 28 38 22 33 33 35 34 31 28 29 30 36 46 48 53 54 55 54 53 52 50 47 46 43 40 37 35 32 30 28 26 25 23 22 21 21 20 19 20 17 17
10 16 22 19 8 10 21 29 30 42 26 30 28 30 32 33 29 29 29 34 46 47 52 53 54 53 53 52 50 49 48 46 43 40 36 35 33 31 29 27 25 24 23 22 22 22 22 19 18
13 15 19 21 6 12 20 29 25 30 22 18 21 25 29 29 31 31 29 32 40 46 47 48 50 51 52 52 52 51 50 48 46 43 39 37 35 34 31 29 27 26 26 25 26 25 23 22 19
16 19 26 27 18 17 26 27 25 22 24 26 34 26 24 23 27 27 30 31 37 44 46 47 49 51 51 54 55 53 54 51 48 45 42 40 38 37 35 32 29 29 28 27 25 26 27 25 22
16 20 26 26 18 19 28 31 29 22 21 29 29 31 31 26 31 28 27 32 36 42 46 48 49 50 51 52 53 52 51 49 47 45 44 43 42 40 38 35 34 32 30 29 27 28 30 28 26
15 18 23 26 18 24 22 36 29 26 31 32 29 36 32 31 32 27 27 35 37 41 47 50 49 51 51 50 49 47 45 44 46 48 48 48 45 43 42 39 36 35 33 32 31 31 32 31 29
17 11 19 21 15 15 3 20 20 16 24 23 33 29 35 38 41 37 26 28 38 41 42 47 49 50 51 49 50 50 50 50 50 50 50 49 47 46 45 42 40 38 36 36 34 33 34 33 32
10 8 12 12 16 17 22 16 21 15 20 24 24 38 37 35 40 42 42 31 33 37 41 46 50 49 50 51 51 51 50 47 44 48 49 49 48 48 47 46 44 43 41 39 37 37 38 37 36
15 17 18 15 11 9 24 19 24 18 26 23 25 33 38 38 36 42 44 35 35 37 39 45 49 52 51 51 52 53 51 49 48 47 46 47 48 49 51 50 49 47 45 44 41 39 40 40 39
5 9 4 3 5 11 7 16 27 13 19 25 28 34 31 38 39 39 40 35 37 36 41 44 47 52 53 51 53 54 52 50 49 47 43 43 46 49 52 53 53 52 50 47 45 43 42 44 42
13 9 6 6 6 15 9 14 16 16 25 37 30 38 35 29 38 38 41 44 42 43 44 44 49 50 53 54 54 53 53 54 52 50 47 44 43 40 45 50 53 53 52 50 47 45 45 45 43
3 6 12 7 20 11 9 29 22 23 24 26 28 37 29 38 36 37 44 48 45 45 48 48 49 51 52 53 55 56 56 57 57 53 51 49 45 44 42 42 45 48 52 52 49 48 47 47 45
4 6 5 3 5 5 10 20 12 9 11 14 15 21 33 37 34 35 41 46 50 49 47 49 49 51 53 53 53 52 54 56 57 58 57 53 50 49 46 44 42 43 47 50 50 49 48 49 47
4 4 3 4 5 7 7 2 13 19 24 17 14 18 26 33 27 25 38 37 44 45 49 49 50 50 53 53 49 50 51 54 56 58 59 58 56 54 52 49 47 43 44 47 49 50 49 50 50
1 7 4 4 7 8 7 8 12 18 19 21 18 22 21 16 28 17 13 24 34 39 43 43 47 49 51 50 51 52 51 52 53 55 56 59 60 58 56 54 52 49 46 45 46 49 50 50 51
Wind_Direction
226 212 196 230 243 312 245 232 305 206 214 208 162 170 216 232 176 203 257 183 184 178 172 171 170 172 174 176 173 168 165 165 162 161 163 165 157 148 143 139 136 136 135 131 125 120 114 106 101
209 188 173 122 228 234 241 186 214 228 225 297 277 231 224 241 237 276 169 191 180 178 172 173 171 174 175 175 172 169 166 163 159 161 164 159 153 146 144 140 139 139 136 132 128 122 112 107 105
191 181 178 205 195 227 251 201 235 267 279 292 297 236 193 215 226 232 235 192 179 178 173 174 172 174 175 175 172 168 163 161 160 161 160 154 151 147 144 142 142 142 139 136 129 123 118 115 108
174 169 79 237 232 230 221 100 105 346 332 280 325 285 268 241 252 220 213 193 179 178 175 175 171 173 176 174 171 167 163 162 161 161 157 154 150 148 147 145 146 144 141 139 134 129 125 122 114
183 170 232 242 253 251 237 251 269 285 304 288 317 281 277 255 250 221 191 189 181 178 175 175 172 174 177 175 171 169 167 163 162 161 159 156 153 151 151 149 146 145 143 142 141 138 134 125 118
180 143 223 238 249 247 257 250 258 272 270 290 280 264 265 241 234 190 178 181 184 179 176 175 174 175 178 176 173 172 169 166 164 163 161 159 156 155 155 153 149 148 145 146 147 145 144 139 126
200 198 236 246 261 266 267 242 239 260 271 279 261 266 270 222 197 183 179 180 184 181 178 175 175 178 178 179 178 175 172 169 168 166 164 163 159 159 158 157 154 153 151 154 159 156 154 148 140
199 213 241 235 248 268 257 256 242 208 272 263 250 255 312 279 190 181 181 182 181 182 181 179 178 179 179 181 183 179 177 173 172 171 169 167 164 163 162 161 159 157 158 159 166 165 162 155 155
197 233 242 236 229 245 284 240 193 238 257 256 282 308 294 300 193 180 176 178 181 184 185 183 182 182 181 184 183 184 182 180 177 176 175 172 170 167 166 164 162 163 164 166 171 171 164 161 160
204 233 242 243 237 251 250 253 298 295 277 279 289 307 355 262 200 184 178 179 185 188 188 188 187 185 185 186 185 187 186 186 185 182 180 179 175 171 168 167 167 167 169 171 171 177 172 170 164
212 239 241 244 256 258 259 265 263 268 266 256 270 237 332 298 216 199 189 190 191 190 190 190 191 189 189 190 189 190 191 190 190 189 187 183 179 176 174 173 173 173 174 175 174 176 180 176 169
250 248 249 256 259 268 268 276 261 261 256 258 263 278 289 266 251 218 203 195 193 193 194 194 194 193 193 193 194 194 194 194 194 193 192 189 185 182 181 180 179 178 178 176 175 176 178 175 172
240 259 264 261 255 257 268 259 269 260 261 263 267 262 263 268 270 254 218 207 198 200 197 198 198 198 196 196 198 198 198 199 199 198 196 195 193 188 187 185 185 183 182 180 178 177 175 170 169
298 291 283 273 262 255 253 267 273 260 260 264 260 264 262 264 259 250 225 216 211 203 203 201 202 201 201 200 202 202 203 203 203 204 202 199 198 196 193 191 189 189 186 185 182 182 181 181 180
289 289 281 257 248 249 258 254 242 256 254 264 262 264 258 254 252 245 247 226 218 211 207 207 206 204 205 204 205 206 208 208 208 208 207 205 201 200 199 197 194 194 192 190 189 187 183 182 175
279 282 274 302 225 230 204 257 247 262 250 251 252 253 256 255 250 258 254 237 223 216 213 211 210 208 209 208 208 209 212 213 213 213 210 209 207 204 202 200 199 198 198 197 195 194 189 180 173
246 265 268 288 264 220 215 253 252 261 262 256 246 243 250 252 244 249 247 236 226 219 217 215 215 214 212 211 212 212 216 217 218 218 215 212 212 209 207 204 202 201 204 204 202 199 195 191 183
269 260 270 272 314 281 245 247 256 263 259 258 262 248 246 248 243 243 244 234 227 223 222 220 219 219 215 214 215 215 219 221 221 221 219 216 215 214 211 209 206 205 207 209 209 204 201 197 190
269 271 275 276 282 271 271 272 272 274 266 253 255 254 251 251 248 237 241 235 228 226 224 223 221 220 218 216 217 218 221 222 223 223 221 220 219 217 215 213 210 209 210 212 212 207 203 200 199
261 264 268 278 282 261 275 273 273 276 273 262 257 252 251 256 251 241 227 233 228 229 226 224 224 223 222 221 222 223 223 224 225 224 221 223 221 220 219 216 215 214 213 211 211 208 204 203 203
263 253 260 266 295 281 284 278 268 262 264 261 258 252 250 247 252 247 234 236 234 230 228 226 224 224 224 224 223 221 223 224 223 224 222 222 222 222 222 221 220 220 218 218 216 212 209 208 209
268 278 266 277 278 262 315 272 276 258 246 243 244 249 243 243 249 252 243 230 236 237 235 232 227 224 225 224 224 223 223 222 223 223 222 223 223 224 224 223 224 225 224 223 223 221 218 215 217
256 301 284 280 272 274 260 270 271 261 251 238 239 232 241 239 238 246 244 238 235 243 240 235 231 226 227 225 226 228 228 229 231 228 228 228 226 226 228 226 225 227 227 228 227 226 222 222 222
281 281 284 267 264 258 243 238 270 245 248 257 256 243 236 237 237 241 247 240 233 245 244 238 232 229 227 227 226 229 230 230 228 231 231 232 232 229 230 229 229 230 229 230 230 230 228 226 225
234 277 277 241 213 252 257 230 243 276 258 247 247 244 242 233 235 239 243 237 232 228 243 240 235 232 228 228 228 229 230 233 234 234 233 233 233 233 233 231 230 231 232 233 233 232 230 227 226
302 266 266 277 244 278 254 249 245 235 238 254 266 251 247 238 232 232 236 240 242 236 237 239 239 235 231 230 231 231 232 232 235 236 238 237 238 238 239 236 234 235 234 234 235 234 232 230 228
346 290 287 271 253 276 264 269 266 254 261 250 245 250 246 239 236 231 237 235 237 237 232 236 238 238 236 235 234 232 233 233 235 238 239 241 242 241 241 242 239 238 239 238 237 234 232 232 230
230 321 323 264 284 211 246 263 267 235 333 331 293 265 253 249 241 236 236 237 235 236 235 234 237 237 237 238 237 238 239 239 238 238 239 240 243 243 241 243 242 241 240 239 239 237 234 234 235
302 315 307 271 289 330 323 270 31 12 348 339 338 321 282 250 238 239 235 231 233 237 237 235 232 236 237 238 237 238 240 241 240 240 242 242 243 244 242 243 242 243 242 239 239 240 237 236 237
62 300 294 304 326 292 264 273 25 0 338 330 353 9 10 340 235 238 224 223 224 229 233 234 233 230 234 237 236 237 239 242 242 241 242 244 245 245 247 245 244 242 242 241 239 240 240 241 240